sat.trackr.live / text

‹ back to catalog

FUNCUBE-1 (AO-73)

NORAD 39444 · 2013-066AE

PAYLOAD ACTIVE UNKNOWN

§ Identity

Operator
Country
UK
Launch date
2013-11-21
Launch site
DLS
Launch vehicle
Mass (kg)
RCS (m²)
0.06

Purposes: comms, tech_demo

External: N2YO · Heavens-Above · Gunter

§ Orbital elements

Epoch: 2026-09-09T21:03:24.190848Z

Period
95.33 min
Inclination
97.8365°
Eccentricity
0.0033653
Mean motion
15.10536707 rev/d
Perigee alt
511.3 km
Apogee alt
557.8 km
Semi-major
6,912.7 km
B*
4.0238e-4
RAAN
226.1981°
Arg perigee
275.8131°
Mean anomaly
83.9262°
Rev number
69,244

§ Raw data

FUNCUBE-1 (AO-73)1 39444U 13066AE  26252.87736332  .00006655  00000+0  40238-3 0  99972 39444  97.8365 226.1981 0033653 275.8131  83.9262 15.10536707692440

JSON: /api/v1/satellites/39444 · /tle

For live sub-satellite position, see the globe view (requires WebGL).

§ Visibility from observer

Set your observer location to see the next 7 days of passes ≥ 10°. The values pass through the URL so the page stays shareable.

No JS? Fill the form by hand. The geolocation button needs JavaScript.

§ Radio — SatNOGS DB

ModeDescriptionDownlinkUplink
BPSK BPSK Telemetry 145.935 MHz
CW CW Beacon 145.815 MHz
USB Mode U/V Linear 145.950 MHz–145.970 MHz 435.130 MHz–435.150 MHz

3 transmitters · refreshed weekly from db.satnogs.org